Location: Unspecified
(0.0000°N, 0.0000°E)
Time: 09:57:42
(UTC+00:00)

KITSAT 1 - Visible Passes

Search period start: 20 April 2024 00:00
Search period end: 30 April 2024 00:00
Orbit: 1303 x 1327 km, 66.1° (Epoch: 19 April)

Date Brightness Start Highest point End Pass type
(mag) Time Alt. Az. Time Alt. Az. Time Alt. Az.
20 Apr 10.6 18:53:45 10° SSW 19:01:44 69° WNW 19:09:45 10° NNE visible
21 Apr 13.0 05:09:19 10° NNE 05:14:39 19° ENE 05:19:57 10° ESE visible
21 Apr 11.5 19:10:16 10° SW 19:17:40 41° WNW 19:25:08 10° N visible
22 Apr 12.2 05:23:35 10° N 05:30:39 33° ENE 05:37:40 10° SE visible
22 Apr 12.4 19:27:30 10° WSW 19:33:38 24° WNW 19:39:49 10° NNW visible
23 Apr 13.1 19:46:22 10° W 19:49:40 13° WNW 19:52:59 10° NW visible
25 Apr 12.9 04:18:13 10° NNE 04:23:20 18° ENE 04:28:25 10° ESE visible
25 Apr 11.7 18:18:52 10° SW 18:26:22 43° WNW 18:33:53 10° N visible
26 Apr 12.0 04:32:23 10° N 04:39:20 31° ENE 04:46:14 10° SE visible
26 Apr 12.7 18:36:02 10° WSW 18:42:19 25° WNW 18:48:39 10° NNW visible
27 Apr 11.1 04:47:27 10° N 04:55:17 53° ENE 05:03:04 10° SE visible
27 Apr 13.2 18:54:39 10° W 18:58:21 14° WNW 19:02:03 10° NW visible
28 Apr 10.3 05:03:05 10° NNW 05:11:12 87° ENE 05:19:18 10° SSE visible
29 Apr 12.7 03:27:09 10° NNE 03:32:01 17° ENE 03:36:51 10° ESE visible
29 Apr 10.3 05:19:13 10° NNW 05:27:08 58° WSW 05:35:01 10° S visible
